GFSNW_prec_snow_147.txt.gz
Snowfall_Accumulation
0.0 0.0 0.0 0.0 0.0 0.0 0.0 0.0 11.8 0.0 0.0 11.3 7.7 4.2 0.2 0.0 0.0 0.0 0.0 2.0 3.7 5.2 5.5 5.2 10.3 5.5 1.0 0.0 0.0 0.0 0.0 1.6 0.4 0.0 0.0 0.0 0.0 0.0 0.6 5.8 4.3 9.5 14.9 16.3
0.0 0.0 0.0 0.0 0.0 0.0 0.0 5.1 5.5 0.0 0.0 13.0 4.7 0.5 0.2 0.0 0.1 0.0 0.1 0.7 4.2 5.9 6.7 7.8 7.1 4.7 0.0 0.0 0.0 0.0 0.3 0.2 1.2 1.7 0.0 0.0 0.0 0.0 0.0 1.8 4.8 14.2 15.2 17.4
0.0 0.0 0.0 0.0 0.0 0.0 0.0 1.0 19.9 5.8 5.3 2.4 1.9 1.8 0.9 0.9 0.0 0.6 0.1 1.2 3.8 5.0 4.8 3.8 5.0 6.0 0.0 0.0 0.0 0.0 0.0 1.1 2.9 4.6 5.3 1.8 2.7 1.1 0.5 5.4 13.8 9.0 7.6 7.6
0.0 0.0 0.0 0.0 0.0 0.0 0.0 9.2 15.0 0.0 13.2 6.7 3.1 3.0 4.4 3.8 2.9 0.5 0.4 1.7 1.6 2.4 3.9 2.2 2.0 2.9 2.2 0.0 0.0 0.0 0.0 4.0 4.3 3.8 5.3 2.7 2.2 8.6 7.7 4.7 4.4 6.3 7.9 4.5
0.0 0.0 0.0 0.0 0.0 0.0 0.0 34.1 4.3 0.4 1.4 0.1 2.4 3.7 4.5 3.0 0.1 1.1 0.5 0.0 0.3 0.3 1.2 1.6 0.8 0.8 1.8 2.0 0.0 0.0 0.0 6.3 8.2 6.2 5.7 2.8 5.3 8.5 5.4 3.9 5.6 6.1 2.9 3.4
0.0 0.0 0.0 0.0 0.0 0.0 0.0 0.0 0.0 1.7 0.3 0.2 3.0 2.4 1.0 1.2 0.8 0.3 0.0 0.1 0.0 0.2 0.0 0.0 0.0 0.0 0.0 0.0 0.1 0.0 1.3 2.5 3.8 3.5 2.0 1.3 3.3 7.9 4.9 2.9 1.4 1.7 0.6 2.5
0.0 0.0 0.0 0.0 0.0 0.0 0.0 0.0 0.4 5.3 7.3 1.1 0.3 0.4 0.3 1.0 0.1 0.4 0.0 0.0 0.2 0.0 0.0 0.0 0.0 0.0 0.0 0.0 0.0 0.0 0.6 2.0 1.6 1.7 2.0 6.1 5.4 2.4 0.9 0.2 0.4 0.5 0.1 0.8
0.0 0.0 0.0 0.0 0.0 0.0 0.0 0.0 0.0 3.5 5.9 0.3 0.9 0.5 0.8 0.0 0.0 0.1 0.0 0.0 0.0 0.0 0.0 1.1 0.9 0.3 0.4 0.0 0.0 0.0 0.0 0.6 4.2 5.6 2.4 3.7 1.3 0.9 0.5 0.7 1.0 0.7 0.8 0.8
0.0 0.0 0.0 0.0 0.0 0.0 0.0 0.0 0.0 0.2 8.7 3.1 0.0 0.4 0.0 0.6 1.0 0.4 0.0 0.0 0.0 0.0 0.1 1.4 2.2 1.9 0.8 1.0 0.6 0.0 0.0 0.3 4.9 6.4 4.9 3.4 1.1 0.3 0.1 0.1 1.1 0.6 0.3 0.3
0.0 0.0 0.0 0.0 0.0 0.0 0.0 0.0 0.0 0.0 16.7 0.0 0.0 0.5 0.7 0.0 0.0 2.1 0.0 0.0 0.0 0.0 2.6 3.1 1.3 1.7 0.5 1.6 1.5 1.3 2.4 1.7 5.4 3.9 4.7 0.7 0.1 0.8 0.5 2.0 3.4 0.6 0.1 0.1
0.0 0.0 0.0 0.0 0.0 0.0 0.0 0.0 0.0 0.0 12.9 0.0 0.0 0.0 0.0 0.4 0.2 2.5 0.0 3.1 2.7 3.8 3.1 1.4 1.0 1.1 0.6 1.6 0.9 1.6 0.5 2.3 1.6 2.8 6.2 2.8 0.2 1.4 1.3 1.7 1.0 0.4 0.4 0.2
0.0 0.0 0.0 0.0 0.0 0.0 0.0 0.0 0.0 0.0 1.1 0.0 0.0 0.0 0.0 0.0 0.0 0.0 0.0 2.3 2.8 0.7 2.7 1.2 1.2 1.3 1.3 0.6 5.1 0.1 4.5 1.7 1.5 1.3 2.9 2.5 1.6 2.0 1.4 0.6 0.5 1.1 0.9 0.3
0.0 0.0 0.0 0.0 0.0 0.0 0.0 0.0 0.0 0.0 7.6 0.0 0.0 0.0 0.0 0.0 0.0 0.0 2.7 0.0 0.0 2.7 3.7 2.2 2.8 2.9 0.4 2.0 1.7 1.7 4.3 0.0 5.8 5.8 5.4 2.6 2.1 1.9 0.8 0.9 2.4 2.0 0.8 1.1
0.0 0.0 0.0 0.0 0.0 0.0 0.0 0.0 0.0 0.0 1.3 10.7 3.0 0.0 0.0 0.0 0.0 0.0 0.0 0.0 0.0 0.0 0.0 3.7 3.0 1.9 0.0 2.9 2.5 1.0 3.0 3.2 5.5 9.9 6.2 2.6 2.7 3.3 2.5 1.9 1.4 0.8 0.4 0.2
0.0 0.0 0.0 0.0 0.0 0.0 0.0 0.0 0.0 0.0 0.0 7.7 2.3 0.0 0.0 0.0 0.0 0.0 0.0 0.0 0.0 0.0 3.4 5.0 2.1 0.1 1.1 0.5 2.8 2.9 1.1 2.8 7.7 9.2 10.5 7.2 6.5 5.5 4.6 3.9 2.4 1.0 0.9 0.5
0.0 0.0 0.0 0.0 0.0 0.0 0.0 30.2 0.0 0.0 0.0 3.3 5.8 0.0 0.0 0.0 0.0 0.0 0.0 0.0 0.0 0.0 1.7 3.8 0.7 0.0 0.5 4.0 5.5 4.2 4.5 2.7 2.8 5.6 6.5 9.1 9.2 6.2 3.1 2.5 0.9 0.1 0.1 0.0
0.0 0.0 0.0 0.0 0.0 0.0 2.2 10.8 0.0 0.0 0.0 7.9 7.8 2.8 0.0 0.0 0.0 0.0 0.0 0.0 0.0 0.0 1.9 2.2 0.8 0.4 0.3 5.1 2.7 1.6 0.9 0.5 0.3 0.6 0.5 1.6 1.0 0.8 0.1 0.0 0.0 0.0 0.0 0.0
0.0 0.0 0.0 0.0 0.0 0.0 0.8 0.0 0.0 0.0 0.0 0.7 10.8 5.6 4.4 0.0 0.3 2.1 0.0 0.1 0.0 0.3 0.9 0.2 0.8 1.1 2.0 10.6 1.0 0.0 0.0 0.0 0.0 0.0 0.0 0.0 0.0 0.0 0.0 0.0 0.0 0.0 0.0 0.0
0.0 0.0 0.0 0.0 0.0 8.1 0.0 0.0 0.0 0.0 0.0 7.0 4.9 2.8 8.8 0.0 0.2 0.0 1.3 0.0 6.8 0.0 4.4 1.2 1.1 5.9 10.7 7.5 1.9 0.8 0.2 0.0 0.0 0.0 0.0 0.0 0.1 0.1 0.0 0.7 0.7 0.1 0.8 2.9
0.0 0.0 4.1 39.3 3.0 0.0 0.0 2.2 18.3 12.8 2.2 0.0 1.6 0.3 6.2 0.0 1.5 2.3 3.1 1.8 3.1 5.8 2.2 0.0 4.5 7.0 3.2 0.8 0.2 0.8 0.8 1.5 0.7 0.3 0.2 0.7 0.8 0.9 1.3 1.5 2.1 2.5 2.8 2.9
0.0 31.6 22.5 0.0 0.0 0.0 7.8 25.2 22.6 9.9 10.5 0.5 0.2 0.0 1.6 0.0 10.0 3.3 1.8 7.2 3.3 5.0 3.2 4.3 7.3 5.9 3.8 0.5 0.0 0.0 0.1 0.4 0.7 1.0 1.0 1.0 0.9 1.1 1.7 2.8 1.3 1.7 1.8 2.0
0.0 0.0 0.0 0.0 16.1 15.7 11.9 12.8 7.0 5.2 3.9 0.6 1.1 0.2 0.0 0.3 1.2 9.4 4.0 7.7 11.9 12.2 4.1 7.2 7.2 4.7 1.5 0.6 0.4 0.3 0.4 0.1 0.1 0.2 0.3 0.6 0.8 1.0 1.0 1.6 1.9 2.5 3.1 3.9
0.0 8.5 13.0 12.6 20.0 21.5 14.1 9.5 5.1 5.8 3.7 3.6 1.0 2.4 0.7 0.8 9.4 12.3 9.3 9.7 11.9 4.7 12.3 10.4 7.4 4.3 2.7 2.4 1.5 1.1 1.1 1.0 0.6 1.1 1.2 1.1 1.6 2.1 2.6 3.2 5.1 5.4 6.2 8.0
10.7 22.7 20.3 14.2 11.9 9.7 8.3 4.9 3.6 4.2 5.1 4.4 1.8 1.1 2.1 3.5 10.6 21.5 16.7 14.4 4.7 10.3 8.9 6.0 6.2 7.2 6.9 5.1 4.1 3.7 5.0 5.3 5.3 5.5 6.0 6.3 6.5 7.3 7.7 7.7 8.2 6.5 7.4 9.2
12.3 8.1 10.9 8.7 9.7 7.3 6.6 4.8 4.7 4.5 7.3 5.6 3.2 4.0 5.4 7.6 13.3 12.6 10.0 7.3 6.4 5.0 7.3 8.1 8.2 6.9 6.5 5.6 5.3 5.3 5.7 6.2 6.5 7.0 6.4 7.0 7.2 5.8 7.4 7.9 7.1 5.4 5.5 5.7
5.0 7.0 11.2 7.6 5.9 6.4 6.9 6.3 6.9 4.4 7.9 5.3 5.5 7.9 8.0 9.4 8.4 6.8 7.2 4.6 6.7 7.9 6.5 6.4 7.0 7.0 7.5 7.9 8.0 8.1 8.2 7.4 6.7 6.4 5.9 5.6 5.4 4.6 5.0 5.1 4.6 4.6 3.7 3.8
4.3 10.4 12.1 10.5 8.4 10.2 10.8 8.7 7.8 6.2 4.7 6.0 3.5 3.7 5.8 4.2 4.7 5.7 6.3 9.0 9.3 7.9 8.2 8.0 7.9 8.0 8.3 8.2 8.3 8.5 7.4 6.0 5.4 5.2 4.9 4.6 4.3 3.1 2.1 2.7 3.8 2.7 2.2 1.8

GFSNW_prec_snow_150.txt.gz
Snowfall_Accumulation
0.0 0.0 0.0 0.0 0.0 0.0 0.0 0.0 11.8 0.0 0.0 11.3 7.7 4.9 0.2 0.0 0.0 0.0 0.0 2.0 3.7 5.2 5.5 5.2 10.3 5.5 1.0 0.0 0.0 0.0 0.0 1.6 0.4 0.0 0.0 0.0 0.0 0.0 0.6 5.8 4.3 9.5 14.9 16.3
0.0 0.0 0.0 0.0 0.0 0.0 0.0 5.1 5.5 0.0 0.0 13.3 4.9 0.5 0.2 0.0 0.1 0.0 0.1 0.7 4.2 5.9 6.7 7.8 7.1 4.7 0.0 0.0 0.0 0.0 0.3 0.2 1.2 1.7 0.0 0.0 0.0 0.0 0.0 1.8 4.8 14.2 15.2 17.4
0.0 0.0 0.0 0.0 0.0 0.0 0.0 1.0 20.5 5.8 5.3 2.4 1.9 1.8 0.9 0.9 0.0 0.6 0.1 1.2 3.8 5.0 4.8 3.8 5.0 6.0 0.0 0.0 0.0 0.0 0.0 1.1 2.9 4.6 5.3 1.8 2.7 1.1 0.5 5.4 13.8 9.0 7.6 7.6
0.0 0.0 0.0 0.0 0.0 0.0 0.0 9.2 15.4 0.0 13.6 6.9 3.1 3.0 4.4 3.8 2.9 0.5 0.4 1.7 1.6 2.4 3.9 2.2 2.0 2.9 2.2 0.0 0.0 0.0 0.0 4.0 4.3 3.8 5.3 2.7 2.2 8.6 7.7 4.7 4.4 6.3 7.9 4.5
0.0 0.0 0.0 0.0 0.0 0.0 0.0 34.1 4.3 0.4 1.4 0.1 2.4 3.7 4.5 3.0 0.1 1.1 0.5 0.0 0.3 0.3 1.2 1.6 0.8 0.8 1.8 2.0 0.0 0.0 0.0 6.3 8.2 6.2 5.7 2.8 5.3 8.5 5.4 3.9 5.6 6.1 2.9 3.4
0.0 0.0 0.0 0.0 0.0 0.0 0.0 0.0 0.0 1.7 0.3 0.2 3.0 2.4 1.0 1.2 0.8 0.3 0.0 0.1 0.0 0.2 0.0 0.0 0.0 0.0 0.0 0.0 0.1 0.0 1.3 2.5 3.8 3.5 2.0 1.3 3.3 7.9 4.9 2.9 1.4 1.7 0.6 2.5
0.0 0.0 0.0 0.0 0.0 0.0 0.0 0.0 0.4 5.3 7.3 1.1 0.3 0.4 0.3 1.0 0.1 0.4 0.0 0.0 0.2 0.0 0.0 0.0 0.0 0.0 0.0 0.0 0.0 0.0 0.6 2.0 1.6 1.7 2.0 6.1 5.4 2.4 0.9 0.2 0.4 0.5 0.1 0.8
0.0 0.0 0.0 0.0 0.0 0.0 0.0 0.0 0.0 3.5 6.0 0.3 0.9 0.5 0.8 0.0 0.0 0.1 0.0 0.0 0.0 0.0 0.0 1.1 0.9 0.3 0.4 0.0 0.0 0.0 0.0 0.6 4.2 5.6 2.4 3.7 1.3 0.9 0.5 0.7 1.0 0.7 0.8 0.8
0.0 0.0 0.0 0.0 0.0 0.0 0.0 0.0 0.0 0.2 8.7 3.1 0.0 0.4 0.0 0.6 2.0 0.4 0.0 0.0 0.0 0.0 0.1 1.4 2.2 1.9 0.8 1.0 0.6 0.0 0.0 0.3 4.9 6.4 4.9 3.4 1.1 0.3 0.1 0.1 1.1 0.6 0.3 0.3
0.0 0.0 0.0 0.0 0.0 0.0 0.0 0.0 0.0 0.0 16.7 0.0 0.0 0.5 0.7 0.0 0.0 2.4 0.0 0.0 0.0 0.0 2.6 3.1 1.3 1.7 0.5 1.6 1.5 1.3 2.4 1.7 5.4 3.9 4.7 0.7 0.1 0.8 0.5 2.0 3.4 0.6 0.1 0.1
0.0 0.0 0.0 0.0 0.0 0.0 0.0 0.0 0.0 0.0 12.9 0.0 0.0 0.0 0.0 0.4 0.2 2.5 0.0 3.2 2.7 3.8 3.1 1.4 1.0 1.1 0.6 1.6 0.9 1.6 0.5 2.3 1.6 2.9 6.3 2.9 0.2 1.4 1.3 1.7 1.0 0.4 0.4 0.2
0.0 0.0 0.0 0.0 0.0 0.0 0.0 0.0 0.0 0.0 1.1 0.0 0.0 0.0 0.0 0.0 0.0 0.0 0.0 2.3 2.8 0.7 2.7 1.2 1.2 1.3 1.3 0.6 5.1 0.1 4.5 1.7 1.5 1.3 2.9 2.5 1.6 2.0 1.4 0.6 0.5 1.1 0.9 0.3
0.0 0.0 0.0 0.0 0.0 0.0 0.0 0.0 0.0 0.0 7.6 0.0 0.0 0.0 0.0 0.0 0.0 0.0 2.7 0.0 0.0 2.7 3.7 2.2 2.8 3.1 0.4 2.0 1.7 1.7 4.3 0.0 5.8 5.8 5.4 2.6 2.1 1.9 0.8 0.9 2.4 2.0 0.8 1.1
0.0 0.0 0.0 0.0 0.0 0.0 0.0 0.0 0.0 0.0 1.3 10.7 3.5 0.0 0.0 0.0 0.0 0.0 0.0 0.0 0.0 0.0 0.0 3.7 3.0 1.9 0.0 2.9 2.6 1.1 3.0 3.2 5.5 9.9 6.2 2.6 2.7 3.3 2.5 1.9 1.4 0.8 0.4 0.2
0.0 0.0 0.0 0.0 0.0 0.0 0.0 0.0 0.0 0.0 0.0 7.7 2.5 0.0 0.0 0.0 0.0 0.0 0.0 0.0 0.0 0.0 3.4 5.5 2.1 0.1 1.2 0.5 2.8 2.9 1.1 2.8 8.0 9.2 10.5 7.2 6.5 5.5 4.6 3.9 2.4 1.0 0.9 0.5
0.0 0.0 0.0 0.0 0.0 0.0 0.0 31.7 0.0 0.0 0.0 3.3 5.8 0.0 0.0 0.0 0.0 0.0 0.0 0.0 0.0 0.0 1.7 3.8 0.7 0.0 0.5 4.0 5.5 4.2 4.5 2.7 2.8 5.6 6.5 9.1 9.2 6.2 3.1 2.5 0.9 0.1 0.1 0.0
0.0 0.0 0.0 0.0 0.0 0.0 2.2 10.8 0.0 0.0 0.0 7.9 8.0 2.9 0.0 0.0 0.0 0.0 0.0 0.0 0.0 0.0 1.9 2.2 0.8 0.4 0.3 5.1 2.7 1.6 0.9 0.5 0.3 0.6 0.5 1.6 1.0 0.8 0.1 0.0 0.0 0.0 0.0 0.0
0.0 0.0 0.0 0.0 0.0 0.0 0.8 0.0 0.0 0.0 0.0 0.7 10.9 5.8 4.5 0.0 0.3 2.2 0.0 0.1 0.0 0.3 0.9 0.2 0.8 1.1 2.0 10.8 1.0 0.0 0.0 0.0 0.0 0.0 0.0 0.0 0.0 0.0 0.0 0.0 0.0 0.0 0.0 0.0
0.0 0.0 0.0 0.0 0.0 8.1 0.0 0.0 0.0 0.0 0.0 7.0 4.9 2.8 8.8 0.0 0.2 0.0 1.3 0.0 7.2 0.0 4.5 1.2 1.1 5.9 10.7 7.5 1.9 0.8 0.2 0.0 0.0 0.0 0.0 0.0 0.1 0.1 0.0 0.7 0.7 0.1 0.8 2.9
0.0 0.0 4.1 39.4 3.0 0.0 0.0 2.2 18.3 12.8 2.2 0.0 1.6 0.3 6.2 0.0 1.6 2.4 3.1 1.8 3.1 5.9 2.3 0.0 4.5 7.0 3.2 0.8 0.2 0.8 0.8 1.5 0.7 0.3 0.2 0.7 0.8 0.9 1.3 1.5 2.1 2.5 2.8 2.9
0.0 31.6 22.5 0.0 0.0 0.0 7.8 25.2 22.6 9.9 10.5 0.5 0.2 0.0 1.6 0.0 10.1 3.5 2.0 7.4 3.3 5.0 3.2 4.5 7.4 5.9 3.8 0.5 0.0 0.0 0.1 0.4 0.7 1.0 1.0 1.0 0.9 1.1 1.7 2.8 1.3 1.7 1.8 2.0
0.0 0.0 0.0 0.0 16.4 15.7 11.9 12.8 7.0 5.2 3.9 0.6 1.1 0.2 0.0 0.3 1.2 9.8 4.4 7.7 12.2 12.2 4.1 7.8 7.4 4.7 1.5 0.6 0.4 0.3 0.4 0.1 0.1 0.2 0.3 0.6 0.8 1.0 1.0 1.6 1.9 2.5 3.1 3.9
0.0 8.5 13.0 12.6 20.0 21.7 14.1 9.5 5.1 5.8 3.7 3.6 1.0 2.4 1.0 0.8 9.4 12.6 9.5 9.7 12.2 5.0 12.7 10.5 7.4 4.3 2.7 2.4 1.5 1.1 1.1 1.0 0.6 1.1 1.2 1.1 1.6 2.1 2.6 3.2 5.1 5.4 6.2 8.0
10.7 22.7 20.3 14.2 11.9 9.7 8.3 4.9 3.6 4.2 5.1 4.5 1.8 1.6 2.8 4.1 11.0 21.7 16.7 14.4 4.9 10.5 8.9 6.0 6.4 7.2 6.9 5.1 4.1 3.7 5.0 5.3 5.3 5.5 6.0 6.3 6.5 7.3 7.7 7.7 8.2 6.5 7.4 9.2
12.3 8.1 10.9 8.7 9.7 7.3 6.6 5.0 4.7 4.5 7.3 5.6 3.8 4.7 6.1 8.0 13.3 12.7 10.0 7.3 6.4 5.0 7.3 8.1 8.2 6.9 6.5 5.6 5.3 5.3 5.7 6.2 6.5 7.0 6.4 7.0 7.2 5.8 7.4 7.9 7.1 5.4 5.5 5.7
5.3 7.1 11.2 7.6 6.0 6.4 6.9 6.5 7.3 4.4 7.9 5.3 6.2 8.3 8.5 9.6 8.4 6.8 7.2 4.6 6.7 7.9 6.8 6.4 7.0 7.0 7.5 7.9 8.0 8.1 8.2 7.4 6.7 6.4 5.9 5.6 5.4 4.6 5.0 5.1 4.6 4.6 3.7 3.8
4.3 10.6 12.1 10.9 8.8 10.4 10.8 8.7 7.8 6.2 5.3 6.3 3.6 3.7 5.8 4.7 4.7 5.7 6.3 9.0 9.3 7.9 8.2 8.0 7.9 8.0 8.3 8.2 8.3 8.5 7.4 6.0 5.4 5.2 4.9 4.6 4.3 3.1 2.1 2.7 3.9 2.7 2.3 1.8

GFSNW_prec_snow_156.txt.gz
Snowfall_Accumulation
0.0 0.0 0.0 0.0 0.0 0.0 0.0 0.0 12.0 0.0 0.0 11.3 7.7 5.1 0.2 0.0 0.0 0.0 0.0 2.0 3.7 5.2 5.5 5.2 10.3 5.5 1.0 0.0 0.0 0.0 0.0 1.6 0.4 0.0 0.0 0.0 0.0 0.0 0.6 5.8 4.3 9.5 14.9 16.3
0.0 0.0 0.0 0.0 0.0 0.0 0.0 5.1 5.5 0.0 0.0 13.6 5.0 0.5 0.2 0.0 0.1 0.0 0.1 0.7 4.2 5.9 6.7 7.8 7.1 4.7 0.0 0.0 0.0 0.0 0.3 0.2 1.2 1.7 0.0 0.0 0.0 0.0 0.0 1.8 4.8 14.2 15.2 17.4
0.0 0.0 0.0 0.0 0.0 0.0 0.0 1.0 21.4 5.8 5.3 2.4 1.9 1.8 0.9 0.9 0.0 0.6 0.1 1.2 3.8 5.0 4.8 3.8 5.0 6.0 0.0 0.0 0.0 0.0 0.0 1.1 2.9 4.6 5.3 1.8 2.7 1.1 0.5 5.4 13.9 9.0 7.6 7.6
0.0 0.0 0.0 0.0 0.0 0.0 0.0 9.2 19.1 0.0 14.2 7.2 3.1 3.0 4.4 3.8 2.9 0.5 0.4 1.7 1.6 2.4 4.0 2.2 2.2 2.9 2.2 0.0 0.0 0.0 0.0 4.0 4.3 3.8 5.3 2.7 2.2 8.6 7.7 4.7 4.4 6.3 7.9 4.5
0.0 0.0 0.0 0.0 0.0 0.0 0.0 41.6 5.4 0.4 1.6 0.1 2.4 3.9 4.5 3.0 0.1 1.1 0.5 0.0 0.3 0.3 1.2 1.6 0.8 0.8 1.8 2.0 0.0 0.0 0.0 6.3 8.2 6.2 5.7 2.8 5.3 8.5 5.4 3.9 5.6 6.1 2.9 3.4
0.0 0.0 0.0 0.0 0.0 0.0 0.0 0.0 0.0 1.7 0.3 0.2 3.1 2.4 1.0 1.2 0.8 0.3 0.0 0.1 0.0 0.2 0.0 0.0 0.0 0.0 0.0 0.0 0.1 0.0 1.3 2.5 3.8 3.5 2.0 1.3 3.4 7.9 4.9 2.9 1.4 1.7 0.6 2.5
0.0 0.0 0.0 0.0 0.0 0.0 0.0 0.0 0.4 8.2 10.4 1.8 0.3 0.4 0.3 1.0 0.1 0.4 0.0 0.0 0.2 0.0 0.0 0.0 0.0 0.0 0.0 0.0 0.0 0.0 0.6 2.0 1.6 1.7 2.0 6.1 5.4 2.4 0.9 0.2 0.4 0.5 0.1 0.8
0.0 0.0 0.0 0.0 0.0 0.0 0.0 0.0 0.0 5.9 8.9 1.0 0.9 0.6 0.8 0.0 0.0 0.1 0.0 0.0 0.0 0.0 0.0 3.4 3.0 1.8 0.7 0.0 0.0 0.0 0.0 0.6 4.2 5.6 2.4 3.7 1.3 0.9 0.5 0.7 1.0 0.7 0.8 0.8
0.0 0.0 0.0 0.0 0.0 0.0 0.0 0.0 0.0 0.2 12.0 3.8 0.0 0.5 0.0 0.7 2.0 1.6 0.0 0.0 0.0 0.0 1.0 3.8 4.5 3.1 1.2 1.0 0.6 0.0 0.0 0.3 4.9 6.4 4.9 3.4 1.1 0.3 0.1 0.1 1.1 0.6 0.3 0.3
0.0 0.0 0.0 0.0 0.0 0.0 0.0 0.0 0.0 0.0 22.2 0.0 0.0 0.5 0.7 0.0 0.0 3.2 0.0 0.0 0.0 0.0 2.9 3.2 2.0 1.9 0.6 1.7 1.5 1.3 2.4 1.7 5.5 3.9 4.7 0.7 0.1 0.8 0.5 2.0 3.4 0.6 0.1 0.1
0.0 0.0 0.0 0.0 0.0 0.0 0.0 0.0 0.0 0.0 15.6 0.0 0.0 0.0 0.0 0.4 0.2 2.5 0.0 4.0 2.7 4.5 3.7 1.7 1.4 1.3 0.6 1.6 0.9 1.6 0.5 2.3 1.6 2.9 6.3 2.9 0.2 1.4 1.3 1.7 1.0 0.4 0.4 0.2
0.0 0.0 0.0 0.0 0.0 0.0 0.0 0.0 0.0 0.0 1.1 0.0 0.0 0.0 0.0 0.0 0.0 0.0 0.0 2.3 2.8 0.7 2.7 1.2 1.2 1.3 1.4 0.6 5.1 0.1 4.6 1.7 1.5 1.3 2.9 2.5 1.6 2.0 1.4 0.6 0.5 1.1 0.9 0.3
0.0 0.0 0.0 0.0 0.0 0.0 0.0 0.0 0.0 0.0 7.6 0.0 0.0 0.0 0.0 0.0 0.0 0.0 2.7 0.0 0.0 2.7 3.7 2.3 2.8 3.1 0.4 2.0 1.7 1.7 4.3 0.0 5.8 5.8 5.4 2.6 2.1 1.9 0.8 0.9 2.4 2.0 0.8 1.1
0.0 0.0 0.0 0.0 0.0 0.0 0.0 0.0 0.0 0.0 1.3 12.5 3.5 0.0 0.0 0.0 0.0 0.0 0.0 0.0 0.0 0.0 0.0 3.7 3.1 2.1 0.0 2.9 2.6 1.1 3.0 3.2 5.5 9.9 6.2 2.6 2.7 3.3 2.5 1.9 1.4 0.8 0.4 0.2
0.0 0.0 0.0 0.0 0.0 0.0 0.0 0.0 0.0 0.0 0.0 9.2 3.3 0.0 0.0 0.0 0.0 0.0 0.0 0.0 0.0 0.0 3.4 5.5 2.1 0.1 1.2 0.5 2.8 2.9 1.1 2.8 8.0 9.2 10.5 7.2 6.5 5.5 4.6 3.9 2.4 1.0 0.9 0.5
0.0 0.0 0.0 0.0 0.0 0.0 0.0 34.1 0.0 0.0 0.0 4.9 6.4 0.0 0.0 0.0 0.0 0.0 0.0 0.0 0.0 0.0 1.7 3.8 0.7 0.0 0.5 4.1 5.5 4.2 4.5 2.7 2.8 5.6 6.5 9.1 9.2 6.2 3.1 2.5 0.9 0.1 0.1 0.0
0.0 0.0 0.0 0.0 0.0 0.0 3.6 14.3 0.0 0.0 0.0 7.9 8.3 2.9 0.0 0.0 0.0 0.0 0.0 0.0 0.0 0.0 1.9 2.2 0.8 0.4 0.3 5.1 2.7 1.6 0.9 0.5 0.3 0.6 0.5 1.6 1.0 0.8 0.1 0.0 0.0 0.0 0.0 0.0
0.0 0.0 0.0 0.0 0.0 0.0 0.8 0.0 0.0 0.0 0.0 0.7 10.9 5.9 4.5 0.0 0.3 2.2 0.0 0.1 0.0 0.3 0.9 0.2 0.8 1.1 2.0 10.8 1.0 0.0 0.0 0.0 0.0 0.0 0.0 0.0 0.0 0.0 0.0 0.0 0.0 0.0 0.0 0.0
0.0 0.0 0.0 0.0 0.0 14.1 0.0 0.0 0.0 0.0 0.0 7.0 4.9 2.8 8.8 0.0 0.2 0.0 1.3 0.0 7.2 0.0 4.5 1.2 1.1 5.9 10.7 7.5 1.9 0.8 0.2 0.0 0.0 0.0 0.0 0.0 0.1 0.1 0.0 0.7 0.7 0.1 0.8 2.9
0.0 0.0 6.8 44.2 7.7 0.0 0.0 2.2 19.6 13.0 2.2 0.0 1.6 0.3 6.2 0.0 1.6 2.4 3.1 1.8 3.1 5.9 2.3 0.0 4.5 7.0 3.2 0.8 0.2 0.8 0.8 1.5 0.7 0.3 0.2 0.7 0.8 0.9 1.3 1.5 2.1 2.5 2.8 2.9
0.0 32.3 23.6 2.0 0.0 0.0 8.7 25.7 22.7 9.9 10.5 0.5 0.2 0.0 1.6 0.0 10.1 3.5 2.0 7.4 3.3 5.0 3.2 4.5 7.4 5.9 3.8 0.5 0.0 0.0 0.1 0.4 0.7 1.0 1.0 1.0 0.9 1.1 1.7 2.8 1.3 1.7 1.8 2.0
0.0 0.0 0.0 0.0 16.7 16.0 11.9 12.8 7.0 5.2 3.9 0.6 1.1 0.2 0.0 0.3 1.2 9.8 4.4 7.7 12.2 12.2 4.1 7.8 7.4 4.7 1.5 0.6 0.4 0.3 0.4 0.1 0.1 0.2 0.3 0.6 0.8 1.0 1.0 1.6 1.9 2.5 3.1 3.9
0.0 8.5 13.0 12.7 20.1 21.7 14.1 9.5 5.1 5.8 3.7 3.6 1.0 2.4 1.0 0.8 9.4 12.6 9.5 9.7 12.2 5.0 12.7 10.5 7.4 4.3 2.7 2.4 1.5 1.1 1.1 1.0 0.6 1.1 1.2 1.1 1.6 2.1 2.6 3.2 5.1 5.4 6.2 8.0
10.7 22.7 20.3 14.2 11.9 9.7 8.3 4.9 3.6 4.2 5.1 4.5 1.8 1.6 2.8 4.1 11.0 21.7 16.7 14.4 4.9 10.5 8.9 6.0 6.4 7.2 6.9 5.1 4.1 3.7 5.0 5.3 5.3 5.5 6.0 6.3 6.5 7.3 7.7 7.7 8.2 6.5 7.4 9.3
12.3 8.1 10.9 8.7 9.7 7.3 6.6 5.0 4.7 4.5 7.3 5.6 3.8 4.7 6.1 8.0 13.8 12.7 10.0 7.4 6.4 5.0 7.3 8.1 8.2 6.9 6.5 5.6 5.3 5.3 5.7 6.2 6.5 7.0 6.4 7.0 7.2 5.8 7.4 7.9 7.1 5.4 5.5 5.7
5.3 7.1 11.2 7.6 6.0 6.4 6.9 6.5 7.3 4.4 7.9 5.9 6.2 9.7 9.3 11.4 8.8 6.8 7.2 4.6 6.7 7.9 6.8 6.4 7.2 7.0 7.5 7.9 8.0 8.1 8.2 7.4 6.7 6.4 5.9 5.6 5.4 4.6 5.0 5.2 4.6 4.6 3.8 3.9
4.3 10.6 12.1 10.9 8.8 10.4 10.8 8.7 7.8 6.2 5.6 6.9 3.6 4.2 6.8 4.9 5.1 5.9 6.3 9.0 9.3 7.9 8.3 8.0 7.9 8.0 8.3 8.2 8.3 8.5 7.4 6.0 5.4 5.2 4.9 4.6 4.3 3.2 2.1 2.8 4.1 2.7 2.3 1.8

GFSNW_prec_snow_159.txt.gz
Snowfall_Accumulation
0.0 0.0 0.0 0.0 0.0 0.0 0.0 0.0 12.2 0.0 0.0 11.3 7.7 5.1 0.2 0.0 0.0 0.0 0.0 2.0 3.7 5.2 5.5 5.2 10.3 5.5 1.0 0.0 0.0 0.0 0.0 1.6 0.4 0.0 0.0 0.0 0.0 0.0 0.6 5.8 4.3 9.5 14.9 16.3
0.0 0.0 0.0 0.0 0.0 0.0 0.0 5.1 5.5 0.0 0.0 13.6 5.0 0.5 0.2 0.0 0.1 0.0 0.1 0.7 4.2 5.9 6.7 7.9 7.1 4.7 0.0 0.0 0.0 0.0 0.3 0.2 1.2 1.7 0.0 0.0 0.0 0.0 0.0 1.8 4.8 14.2 15.2 17.4
0.0 0.0 0.0 0.0 0.0 0.0 0.0 1.0 22.8 5.8 5.3 2.4 1.9 1.8 0.9 0.9 0.0 0.6 0.1 1.2 3.8 5.0 4.8 3.8 5.0 6.0 0.0 0.0 0.0 0.0 0.0 1.1 2.9 4.6 5.3 1.8 2.7 1.1 0.5 5.4 14.0 9.0 7.6 7.6
0.0 0.0 0.0 0.0 0.0 0.0 0.0 9.2 20.9 0.0 14.6 8.4 3.5 3.0 4.4 3.8 2.9 0.5 0.4 1.8 1.6 2.4 4.0 2.3 2.3 2.9 2.2 0.0 0.0 0.0 0.0 4.6 4.3 3.8 5.3 2.7 2.2 8.6 7.7 4.7 4.4 6.3 7.9 4.5
0.0 0.0 0.0 0.0 0.0 0.0 0.0 43.8 6.2 0.4 2.0 0.1 2.4 4.3 4.7 3.0 0.1 1.1 0.5 0.1 0.3 0.3 1.2 1.6 0.8 0.8 1.8 2.0 0.0 0.0 0.0 6.3 8.3 6.3 5.7 2.9 5.4 8.5 5.4 3.9 5.6 6.1 2.9 3.4
0.0 0.0 0.0 0.0 0.0 0.0 0.0 0.0 0.0 1.7 1.6 0.2 3.2 2.6 1.0 1.2 0.8 0.3 0.0 0.1 0.0 0.2 0.0 0.0 0.0 0.0 0.0 0.0 0.1 0.0 1.3 2.9 4.4 4.0 2.0 1.3 3.4 7.9 4.9 2.9 1.4 1.7 0.6 2.5
0.0 0.0 0.0 0.0 0.0 0.0 0.0 0.0 0.4 9.7 11.7 3.1 1.1 0.5 0.3 1.0 0.1 0.4 0.0 0.0 0.3 0.0 0.0 0.0 0.0 0.0 0.0 0.0 0.0 0.0 1.2 2.5 2.1 2.0 2.2 6.6 5.5 2.4 0.9 0.2 0.4 0.5 0.1 0.8
0.0 0.0 0.0 0.0 0.0 0.0 0.0 0.0 0.0 7.7 10.5 1.6 1.2 0.6 0.8 0.0 0.0 0.1 0.0 0.0 0.0 0.0 0.0 3.4 3.7 1.8 1.5 0.0 0.0 0.0 0.0 0.8 4.4 5.7 2.4 3.7 1.3 0.9 0.5 0.7 1.0 0.7 0.8 0.8
0.0 0.0 0.0 0.0 0.0 0.0 0.0 0.0 0.0 0.2 13.6 3.8 0.0 0.9 0.6 1.2 2.2 1.7 0.0 0.0 0.0 0.0 1.0 4.6 5.3 3.1 1.7 1.0 0.6 0.0 0.0 0.6 5.1 6.4 4.9 3.4 1.1 0.3 0.1 0.1 1.1 0.6 0.3 0.3
0.0 0.0 0.0 0.0 0.0 0.0 0.0 0.0 0.0 0.0 22.9 0.0 0.0 0.6 0.9 0.0 0.0 3.6 0.0 0.0 0.0 0.0 3.3 3.7 2.4 2.1 0.9 2.1 1.5 1.3 2.5 2.0 5.6 3.9 4.7 0.7 0.1 0.8 0.5 2.0 3.4 0.6 0.1 0.1
0.0 0.0 0.0 0.0 0.0 0.0 0.0 0.0 0.0 0.0 15.6 0.0 0.0 0.0 0.0 0.4 0.2 2.5 0.0 4.5 2.7 5.8 4.7 2.4 1.8 1.4 0.6 1.6 0.9 1.6 0.5 2.3 1.6 2.9 6.3 2.9 0.2 1.4 1.3 1.7 1.0 0.4 0.4 0.2
0.0 0.0 0.0 0.0 0.0 0.0 0.0 0.0 0.0 0.0 1.4 0.0 0.0 0.0 0.0 0.0 0.0 0.0 0.0 2.3 2.8 0.7 3.8 1.5 1.3 1.4 1.4 0.6 5.1 0.1 4.8 1.8 1.5 1.3 2.9 2.5 1.6 2.0 1.4 0.6 0.5 1.1 0.9 0.3
0.0 0.0 0.0 0.0 0.0 0.0 0.0 0.0 0.0 0.0 7.8 0.0 0.0 0.0 0.0 0.0 0.0 0.0 2.7 0.0 0.0 2.7 3.7 2.3 2.9 3.1 0.4 2.0 1.8 1.7 4.3 0.0 5.8 5.8 5.4 2.6 2.1 1.9 0.8 0.9 2.4 2.0 0.8 1.1
0.0 0.0 0.0 0.0 0.0 0.0 0.0 0.0 0.0 0.0 1.8 12.6 3.5 0.0 0.0 0.0 0.0 0.0 0.0 0.0 0.0 0.0 0.0 3.7 3.1 2.1 0.0 2.9 2.6 1.1 3.0 3.2 5.5 9.9 6.2 2.6 2.7 3.3 2.5 1.9 1.4 0.8 0.4 0.2
0.0 0.0 0.0 0.0 0.0 0.0 0.0 0.0 0.0 0.0 1.4 10.7 3.6 0.0 0.0 0.0 0.0 0.0 0.0 0.0 0.0 0.0 3.4 5.5 2.1 0.1 1.2 0.5 2.8 2.9 1.1 2.8 8.0 9.2 10.5 7.2 6.5 5.5 4.6 3.9 2.4 1.0 0.9 0.5
0.0 0.0 0.0 0.0 0.0 0.0 0.0 34.4 0.0 0.0 0.0 7.9 8.6 0.0 0.0 0.0 0.0 0.0 0.0 0.0 0.0 0.0 1.7 3.8 0.7 0.0 0.5 4.1 5.5 4.2 4.5 2.7 2.8 5.6 6.5 9.1 9.2 6.2 3.1 2.5 0.9 0.1 0.1 0.0
0.0 0.0 0.0 0.0 0.0 0.0 4.1 14.3 0.0 0.0 0.0 11.9 11.0 4.6 0.0 0.0 0.0 0.0 0.0 0.0 0.0 0.0 1.9 2.2 0.8 0.4 0.3 5.1 2.7 1.6 0.9 0.5 0.3 0.6 0.5 1.6 1.0 0.8 0.1 0.0 0.0 0.0 0.0 0.0
0.0 0.0 0.0 0.0 0.0 0.0 1.0 0.0 0.0 0.0 0.0 4.0 13.3 7.3 5.1 0.0 0.3 2.2 0.0 0.1 0.0 0.3 0.9 0.2 0.8 1.1 2.0 10.8 1.0 0.0 0.0 0.0 0.0 0.0 0.0 0.0 0.0 0.0 0.0 0.0 0.0 0.0 0.0 0.0
0.0 0.0 0.0 0.0 0.0 14.1 0.0 0.0 0.0 0.0 0.0 9.0 5.5 3.1 9.0 0.0 0.2 0.0 1.3 0.0 7.2 0.0 4.5 1.2 1.1 5.9 10.7 7.5 1.9 0.8 0.2 0.0 0.0 0.0 0.0 0.0 0.1 0.1 0.0 0.7 0.7 0.1 0.8 2.9
0.0 0.0 8.4 45.9 7.7 0.0 0.0 2.2 26.9 17.8 3.8 0.4 1.7 0.3 6.2 0.0 1.6 2.4 3.1 1.8 3.1 5.9 2.3 0.0 4.5 7.0 3.2 0.8 0.2 0.8 0.8 1.5 0.7 0.3 0.2 0.7 0.8 0.9 1.3 1.5 2.1 2.5 2.8 2.9
0.0 34.1 25.7 2.0 0.0 0.0 11.1 29.5 25.4 10.9 10.8 0.6 0.2 0.0 1.6 0.0 10.1 3.5 2.0 7.4 3.3 5.0 3.2 4.5 7.4 5.9 3.8 0.5 0.0 0.0 0.1 0.4 0.7 1.0 1.0 1.0 0.9 1.1 1.7 2.8 1.3 1.7 1.8 2.0
0.0 0.0 0.0 0.0 18.5 17.2 12.7 13.2 7.0 5.2 3.9 0.6 1.1 0.2 0.0 0.3 1.2 9.8 4.4 7.7 12.2 12.2 4.1 7.8 7.4 4.7 1.5 0.6 0.4 0.3 0.4 0.1 0.1 0.2 0.3 0.6 0.8 1.0 1.0 1.6 1.9 2.5 3.1 3.9
0.0 9.0 13.5 13.5 20.5 21.9 14.1 9.5 5.1 5.8 3.7 3.6 1.0 2.4 1.0 0.8 9.4 12.6 9.5 9.7 12.2 5.0 12.7 10.5 7.4 4.3 2.7 2.4 1.5 1.1 1.1 1.0 0.6 1.1 1.2 1.1 1.6 2.1 2.6 3.2 5.1 5.4 6.2 8.0
10.9 22.9 20.4 14.4 11.9 9.7 8.3 4.9 3.6 4.2 5.1 4.5 1.8 1.6 2.8 4.1 11.0 21.7 16.7 14.4 4.9 10.5 8.9 6.0 6.4 7.2 6.9 5.1 4.1 3.7 5.0 5.3 5.3 5.5 6.0 6.3 6.5 7.3 7.7 7.7 8.2 6.5 7.4 9.3
12.3 8.1 10.9 8.7 9.7 7.3 6.6 5.0 4.7 4.5 7.3 5.6 3.8 4.7 6.1 8.0 13.8 12.7 10.0 7.4 6.4 5.0 7.3 8.1 8.2 6.9 6.5 5.6 5.3 5.3 5.7 6.2 6.5 7.0 6.4 7.0 7.2 5.8 7.4 7.9 7.1 5.4 5.5 5.7
5.3 7.1 11.2 7.6 6.0 6.4 6.9 6.5 7.3 4.4 7.9 5.9 6.2 9.7 9.3 11.4 8.8 6.8 7.2 4.6 6.7 7.9 6.8 6.4 7.2 7.0 7.5 8.0 8.0 8.1 8.2 7.4 6.7 6.4 5.9 5.6 5.4 4.6 5.0 5.2 4.6 4.6 3.8 3.9
4.3 10.6 12.1 10.9 8.8 10.4 10.8 8.7 7.8 6.2 5.6 6.9 3.6 4.2 6.8 4.9 5.1 5.9 6.3 9.0 9.3 7.9 8.3 8.0 7.9 8.0 8.3 8.2 8.3 8.5 7.4 6.0 5.4 5.3 4.9 4.6 4.3 3.2 2.1 2.8 4.3 3.0 2.5 2.1

GFSNW_prec_snow_162.txt.gz
Snowfall_Accumulation
0.0 0.0 0.0 0.0 0.0 0.0 0.0 0.0 12.6 0.0 0.0 11.3 7.8 5.1 0.2 0.0 0.0 0.0 0.0 2.0 3.7 5.2 5.5 5.2 10.3 5.5 1.0 0.0 0.0 0.0 0.0 1.6 0.4 0.0 0.0 0.0 0.0 0.0 0.6 5.8 4.3 9.5 14.9 16.3
0.0 0.0 0.0 0.0 0.0 0.0 0.0 5.1 5.5 0.0 0.0 13.9 5.0 0.5 0.2 0.0 0.1 0.0 0.1 0.7 4.2 5.9 6.7 7.9 7.1 4.7 0.0 0.0 0.0 0.0 0.3 0.2 1.2 1.7 0.0 0.0 0.0 0.0 0.0 1.8 4.8 14.2 15.2 17.4
0.0 0.0 0.0 0.0 0.0 0.0 0.0 1.0 24.0 5.8 5.3 2.4 1.9 1.8 0.9 0.9 0.0 0.6 0.1 1.2 3.8 5.0 4.9 3.8 5.1 6.0 0.0 0.0 0.0 0.0 0.0 1.9 3.2 4.7 5.3 1.8 2.7 1.1 0.5 5.4 14.0 9.0 7.6 7.6
0.0 0.0 0.0 0.0 0.0 0.0 0.0 9.2 21.9 0.0 16.1 9.8 3.7 3.0 4.4 3.8 2.9 0.5 0.4 1.9 1.6 2.4 4.1 2.3 2.3 2.9 2.2 0.0 0.0 0.0 0.0 6.3 4.8 4.2 5.3 2.7 2.2 8.6 7.7 4.7 4.4 6.3 7.9 4.5
0.0 0.0 0.0 0.0 0.0 0.0 0.0 45.5 7.0 1.1 2.9 0.1 2.8 4.9 5.1 3.0 0.1 1.1 0.5 0.1 0.3 0.3 1.4 1.6 0.8 0.8 1.8 2.0 0.0 0.0 0.0 6.4 8.4 6.3 5.7 2.9 5.4 8.5 5.4 3.9 5.6 6.1 2.9 3.4
0.0 0.0 0.0 0.0 0.0 0.0 0.0 0.0 0.0 1.7 1.6 0.7 3.9 3.2 1.0 1.2 0.8 0.3 0.0 0.1 0.0 0.2 0.0 0.0 0.0 0.0 0.0 0.0 0.1 0.0 1.7 3.2 4.4 4.3 2.0 1.3 4.1 7.9 4.9 2.9 1.4 1.7 0.6 2.5
0.0 0.0 0.0 0.0 0.0 0.0 0.0 0.0 0.4 10.6 12.3 3.7 1.5 0.5 0.3 1.0 0.1 0.6 0.0 0.0 0.3 0.0 0.0 0.0 0.0 0.0 0.0 0.0 0.0 0.0 1.2 2.5 4.0 3.9 3.6 8.8 5.5 2.4 0.9 0.2 0.4 0.5 0.1 0.8
0.0 0.0 0.0 0.0 0.0 0.0 0.0 0.0 0.0 7.7 11.3 1.9 1.2 0.6 0.8 0.0 0.0 0.5 0.0 0.0 0.0 0.0 0.0 4.1 4.3 2.0 1.5 0.0 0.0 0.0 0.0 1.4 5.7 6.9 3.3 4.1 1.3 0.9 0.5 0.7 1.0 0.7 0.8 0.8
0.0 0.0 0.0 0.0 0.0 0.0 0.0 0.0 0.0 0.2 14.0 3.8 0.0 1.6 1.2 1.9 2.2 1.7 0.0 0.0 0.0 0.0 1.0 5.3 6.5 3.8 1.7 1.0 0.6 0.0 0.0 0.6 6.1 7.5 5.3 3.5 1.1 0.3 0.1 0.1 1.1 0.6 0.3 0.3
0.0 0.0 0.0 0.0 0.0 0.0 0.0 0.0 0.0 0.0 22.9 0.0 0.0 0.6 1.2 0.0 0.6 4.0 0.0 0.0 0.0 0.0 3.8 4.4 2.9 2.1 0.9 2.2 1.5 1.3 2.5 3.4 7.7 5.1 5.2 0.7 0.1 0.8 0.5 2.0 3.4 0.6 0.1 0.1
0.0 0.0 0.0 0.0 0.0 0.0 0.0 0.0 0.0 0.0 15.6 0.0 0.0 0.0 0.0 0.4 0.5 2.9 0.2 5.1 2.7 6.3 5.2 2.9 1.8 1.6 0.6 1.6 0.9 1.6 0.5 2.3 2.2 4.2 7.2 3.0 0.2 1.4 1.3 1.7 1.0 0.4 0.4 0.2
0.0 0.0 0.0 0.0 0.0 0.0 0.0 0.0 0.0 0.0 1.6 0.0 0.0 0.0 0.0 0.0 0.0 0.0 1.0 3.4 3.3 0.7 5.0 1.5 1.3 2.2 1.4 0.6 5.1 0.1 4.9 1.8 1.6 1.3 3.0 2.5 1.6 2.0 1.4 0.6 0.5 1.1 0.9 0.3
0.0 0.0 0.0 0.0 0.0 0.0 0.0 0.0 0.0 0.0 8.2 0.1 0.0 0.0 0.0 0.0 0.0 0.0 3.1 0.0 0.0 2.7 3.7 2.3 3.1 3.3 0.4 2.0 1.8 1.7 4.3 0.0 5.9 5.9 5.4 2.6 2.1 1.9 0.8 0.9 2.4 2.0 0.8 1.1
0.0 0.0 0.0 0.0 0.0 0.0 0.0 0.0 0.0 0.0 2.3 12.9 3.5 0.0 0.0 0.0 0.0 0.0 0.0 0.0 0.0 0.0 0.0 4.0 3.1 2.1 0.0 2.9 2.6 1.1 3.0 3.2 5.5 9.9 6.2 2.6 2.7 3.3 2.5 1.9 1.4 0.8 0.4 0.2
0.0 0.0 0.0 0.0 0.0 0.0 0.0 0.0 0.0 0.0 1.8 11.1 3.8 0.0 0.0 0.0 0.0 0.0 0.0 0.0 0.0 0.0 4.4 6.2 2.1 0.1 1.2 0.5 2.8 2.9 1.1 2.8 8.0 9.2 10.5 7.2 6.5 5.5 4.6 3.9 2.4 1.0 0.9 0.5
0.0 0.0 0.0 0.0 0.0 0.0 0.0 35.5 0.0 0.0 0.0 8.7 9.0 0.0 0.0 0.0 0.0 0.0 0.0 0.0 0.0 0.0 1.7 4.1 0.7 0.0 0.5 4.1 5.5 4.2 4.5 2.7 2.8 5.6 6.5 9.1 9.2 6.2 3.1 2.5 0.9 0.1 0.1 0.0
0.0 0.0 0.0 0.0 0.0 0.0 4.1 14.9 0.4 0.0 0.0 12.6 11.7 4.6 0.0 0.0 0.0 0.0 0.0 0.0 0.0 0.8 2.3 2.2 0.8 0.4 0.3 5.1 2.7 1.6 0.9 0.5 0.3 0.6 0.5 1.6 1.0 0.8 0.1 0.0 0.0 0.0 0.0 0.0
0.0 0.0 0.0 0.0 0.0 0.0 1.0 0.0 0.0 0.0 1.2 4.5 13.3 8.8 5.1 0.0 3.1 4.4 0.9 0.5 0.3 0.3 0.9 0.2 0.8 1.1 2.0 10.8 1.0 0.0 0.0 0.0 0.0 0.0 0.0 0.0 0.0 0.0 0.0 0.0 0.0 0.0 0.0 0.0
0.0 0.0 0.0 0.0 0.0 14.6 0.0 0.0 0.0 0.0 3.6 11.2 5.5 3.1 11.4 0.0 1.1 0.0 1.3 0.0 7.2 0.0 4.5 1.2 1.1 5.9 10.7 7.5 1.9 0.8 0.2 0.0 0.0 0.0 0.0 0.0 0.1 0.1 0.0 0.7 0.7 0.1 0.8 2.9
0.0 0.0 8.4 45.9 7.7 0.0 0.0 2.2 27.8 17.8 5.9 2.3 3.1 0.3 7.8 0.2 1.6 2.4 3.2 1.8 3.1 5.9 2.3 0.0 4.5 7.0 3.2 0.8 0.2 0.8 0.8 1.5 0.7 0.3 0.2 0.7 0.8 0.9 1.3 1.5 2.1 2.5 2.8 2.9
0.0 34.1 25.7 2.0 0.0 0.0 11.1 32.2 25.4 10.9 11.5 0.9 0.4 0.2 2.0 0.2 10.1 3.5 2.0 7.4 3.3 5.0 3.2 4.5 7.4 5.9 3.8 0.5 0.0 0.0 0.1 0.4 0.7 1.0 1.0 1.0 0.9 1.1 1.7 2.8 1.3 1.7 1.8 2.0
0.0 0.0 0.0 0.0 20.0 18.4 14.1 14.6 8.0 5.5 3.9 0.6 1.1 0.2 0.3 0.5 1.2 9.8 4.4 7.7 12.2 12.2 4.1 7.8 7.4 4.7 1.5 0.6 0.4 0.3 0.4 0.1 0.1 0.2 0.3 0.6 0.8 1.0 1.0 1.6 1.9 2.5 3.1 3.9
0.0 11.2 15.2 14.8 21.3 22.8 14.5 9.6 5.2 5.8 3.7 3.6 1.0 2.4 1.0 0.8 9.4 12.6 9.5 9.7 12.2 5.0 12.7 10.5 7.4 4.3 2.7 2.4 1.5 1.1 1.1 1.0 0.6 1.1 1.2 1.1 1.6 2.1 2.6 3.2 5.1 5.4 6.2 8.0
12.2 23.6 20.9 14.7 12.0 9.7 8.3 4.9 3.6 4.2 5.1 4.5 1.8 1.6 2.8 4.1 11.0 21.7 16.7 14.4 4.9 10.5 8.9 6.0 6.4 7.2 6.9 5.1 4.1 3.7 5.0 5.3 5.3 5.5 6.0 6.3 6.5 7.3 7.7 7.7 8.2 6.5 7.4 9.3
12.5 8.1 10.9 8.7 9.7 7.3 6.6 5.0 4.7 4.5 7.3 5.6 3.8 4.7 6.1 8.0 13.8 12.7 10.0 7.4 6.4 5.0 7.3 8.1 8.2 6.9 6.5 5.6 5.3 5.3 5.8 6.3 6.5 7.0 6.4 7.0 7.2 5.8 7.4 7.9 7.1 5.4 5.5 5.7
5.3 7.1 11.2 7.6 6.0 6.4 6.9 6.5 7.3 4.4 7.9 5.9 6.2 9.7 9.3 11.4 8.8 6.8 7.2 4.6 6.7 7.9 6.8 6.4 7.2 7.0 7.5 8.0 8.0 8.1 8.2 7.4 6.7 6.4 5.9 5.6 5.4 4.6 5.0 5.2 4.6 4.6 3.8 3.9
4.3 10.6 12.1 10.9 8.8 10.4 10.8 8.7 7.8 6.2 5.6 6.9 3.6 4.2 6.8 4.9 5.1 5.9 6.3 9.0 9.3 7.9 8.3 8.0 7.9 8.0 8.3 8.2 8.3 8.5 7.4 6.0 5.4 5.3 4.9 4.6 4.3 3.2 2.1 2.8 4.3 3.0 3.3 3.0

GFSNW_prec_snow_165.txt.gz
Snowfall_Accumulation
0.0 0.0 0.0 0.0 0.0 0.0 0.0 0.0 12.6 0.0 0.0 11.3 8.9 5.1 0.2 0.0 0.0 0.0 0.0 2.0 3.7 5.2 5.5 5.2 10.4 5.5 1.0 0.0 0.0 0.0 0.0 1.8 0.4 0.0 0.0 0.0 0.0 0.0 0.6 5.8 4.3 9.5 14.9 16.3
0.0 0.0 0.0 0.0 0.0 0.0 0.0 5.1 5.5 0.0 0.0 14.5 5.2 0.6 0.2 0.0 0.1 0.0 0.1 0.7 4.2 5.9 6.7 8.0 7.1 4.7 0.0 0.0 0.0 0.0 0.3 1.3 1.2 1.7 0.0 0.0 0.0 0.0 0.0 1.8 4.8 14.2 15.2 17.4
0.0 0.0 0.0 0.0 0.0 0.0 0.0 1.0 24.5 5.8 5.3 2.4 1.9 1.8 0.9 0.9 0.0 0.6 0.1 1.2 3.8 5.0 4.9 3.8 5.3 6.0 0.0 0.0 0.0 0.0 0.0 1.9 4.0 5.0 5.3 1.8 2.7 1.1 0.5 5.4 14.1 9.0 7.6 7.6
0.0 0.0 0.0 0.0 0.0 0.0 0.0 9.2 22.4 0.0 17.1 11.0 4.5 3.1 4.4 3.8 2.9 0.5 0.4 1.9 1.6 2.4 4.1 2.3 2.3 2.9 2.2 0.0 0.0 0.0 0.0 7.7 5.4 4.2 5.3 2.8 2.3 8.6 7.7 4.7 4.4 6.4 8.0 4.5
0.0 0.0 0.0 0.0 0.0 0.0 0.0 46.6 7.6 1.6 2.9 0.1 3.3 6.2 5.8 3.0 0.1 1.1 0.5 0.1 0.3 0.6 1.4 1.6 0.8 0.8 1.8 2.0 0.0 0.0 0.0 7.3 8.4 6.3 5.7 2.9 5.5 8.5 5.4 3.9 5.6 6.1 2.9 3.4
0.0 0.0 0.0 0.0 0.0 0.0 0.0 0.0 0.0 2.7 1.6 1.2 4.5 3.7 1.4 1.3 0.9 0.3 0.0 0.1 0.3 0.3 0.0 0.0 0.0 0.0 0.0 0.0 0.1 0.0 1.7 3.7 4.4 4.8 2.0 1.4 4.8 7.9 4.9 2.9 1.4 1.7 0.6 2.5
0.0 0.0 0.0 0.0 0.0 0.0 0.0 0.0 0.4 10.6 13.0 4.3 2.1 0.5 0.3 1.3 0.3 0.8 0.0 0.0 0.3 0.0 0.0 0.0 0.0 0.0 0.0 0.0 0.0 0.0 1.2 2.6 4.4 4.4 3.6 9.7 5.5 2.4 0.9 0.2 0.4 0.5 0.1 0.8
0.0 0.0 0.0 0.0 0.0 0.0 0.0 0.0 0.0 7.7 11.4 1.9 1.2 0.6 0.9 0.1 0.2 0.9 0.0 0.0 0.0 0.0 0.0 4.5 4.3 2.0 1.5 0.0 0.0 0.0 0.0 1.5 6.2 7.8 3.8 4.1 1.3 0.9 0.5 0.7 1.0 0.7 0.8 0.8
0.0 0.0 0.0 0.0 0.0 0.0 0.0 0.0 0.0 0.2 14.0 3.8 0.0 1.6 1.2 1.9 2.2 1.7 0.0 0.0 0.0 0.0 1.1 5.8 6.8 3.8 1.7 1.0 0.6 0.0 0.0 0.7 6.9 8.4 6.1 3.7 1.1 0.3 0.1 0.1 1.1 0.6 0.3 0.3
0.0 0.0 0.0 0.0 0.0 0.0 0.0 0.0 0.0 0.0 22.9 0.0 0.0 0.6 1.2 0.0 1.3 5.2 0.0 0.0 0.0 0.0 4.6 5.1 3.6 2.1 1.1 2.5 1.6 1.3 2.5 3.6 8.3 5.6 6.1 0.7 0.1 0.8 0.5 2.0 3.4 0.6 0.1 0.1
0.0 0.0 0.0 0.0 0.0 0.0 0.0 0.0 0.0 0.0 15.6 0.0 0.0 0.0 0.0 0.4 0.5 2.9 1.4 5.9 3.2 7.0 7.1 4.4 2.0 1.6 0.6 1.6 0.9 1.6 0.6 2.4 2.4 4.7 8.3 3.6 0.2 1.4 1.4 1.7 1.0 0.4 0.4 0.2
0.0 0.0 0.0 0.0 0.0 0.0 0.0 0.0 0.0 0.0 1.8 0.0 0.0 0.0 0.0 0.0 0.0 0.0 1.0 3.7 3.3 0.7 7.2 3.2 2.4 3.0 2.0 0.6 5.2 0.1 4.9 1.8 1.7 1.5 3.2 2.5 1.6 2.0 1.4 0.6 0.5 1.1 0.9 0.3
0.0 0.0 0.0 0.0 0.0 0.0 0.0 0.0 0.0 0.0 8.2 0.1 0.0 0.0 0.0 0.0 0.0 0.0 3.1 0.0 0.0 2.7 3.7 3.8 4.2 3.3 0.4 2.0 1.8 1.7 4.3 0.0 5.9 5.9 5.4 2.8 2.1 1.9 0.8 0.9 2.4 2.0 0.8 1.1
0.0 0.0 0.0 0.0 0.0 0.0 0.0 0.0 0.0 0.0 2.3 13.2 3.5 0.0 0.0 0.0 0.0 0.0 0.0 0.0 0.0 0.0 0.0 7.1 6.0 2.9 0.0 2.9 2.6 1.1 3.0 3.2 5.5 9.9 6.2 2.6 2.7 3.3 2.5 1.9 1.4 0.8 0.4 0.2
0.0 0.0 0.0 0.0 0.0 0.0 0.0 0.0 0.0 0.0 1.8 11.1 3.8 0.0 0.0 0.0 0.0 0.0 0.0 0.0 0.0 0.0 5.1 7.8 3.5 0.5 1.3 0.5 2.8 2.9 1.1 2.8 8.0 9.2 10.5 7.2 6.5 5.5 4.6 3.9 2.4 1.0 0.9 0.5
0.0 0.0 0.0 0.0 0.0 0.0 0.0 35.5 0.0 0.0 0.0 9.5 9.3 0.0 0.0 0.0 0.0 0.0 0.0 0.0 0.1 0.1 1.8 4.6 1.2 0.0 0.5 4.1 5.5 4.2 4.5 2.7 2.8 5.6 6.5 9.1 9.2 6.2 3.1 2.5 0.9 0.1 0.1 0.0
0.0 0.0 0.0 0.0 0.0 0.0 4.1 14.9 0.6 0.0 0.0 13.6 12.1 4.6 0.0 0.0 0.0 0.0 0.0 0.0 0.1 1.0 2.9 2.8 1.1 0.5 0.4 5.1 2.7 1.6 0.9 0.5 0.3 0.6 0.5 1.6 1.0 0.8 0.1 0.0 0.0 0.0 0.0 0.0
0.0 0.0 0.0 0.0 0.0 0.0 1.0 0.0 0.0 0.0 2.0 5.0 13.6 8.8 5.1 0.0 3.1 5.2 0.9 1.5 0.8 0.9 1.6 1.0 1.3 1.3 2.0 10.8 1.0 0.0 0.0 0.0 0.0 0.0 0.0 0.0 0.0 0.0 0.0 0.0 0.0 0.0 0.0 0.0
0.0 0.0 0.0 0.0 0.0 14.6 0.0 0.0 0.0 0.0 5.8 12.7 5.8 3.1 11.4 0.0 3.5 2.7 3.1 0.0 8.4 0.7 4.7 1.2 1.3 6.0 10.7 7.5 1.9 0.8 0.2 0.0 0.0 0.0 0.0 0.0 0.1 0.1 0.0 0.7 0.7 0.1 0.8 2.9
0.0 0.0 8.4 45.9 7.7 0.0 0.0 2.2 27.8 17.9 6.3 3.2 3.6 0.7 8.5 2.5 4.4 4.5 4.4 2.6 3.7 6.1 2.4 0.0 4.5 7.0 3.2 0.8 0.2 0.8 0.8 1.5 0.7 0.3 0.2 0.7 0.8 0.9 1.3 1.5 2.1 2.5 2.8 2.9
0.0 34.1 25.7 2.0 0.0 0.0 11.1 32.2 25.6 10.9 11.5 0.9 0.4 0.2 2.0 3.1 12.6 4.1 2.2 7.4 3.3 5.0 3.2 4.5 7.4 5.9 3.8 0.5 0.0 0.0 0.1 0.4 0.7 1.0 1.0 1.0 0.9 1.1 1.7 2.8 1.3 1.7 1.8 2.0
0.0 0.0 0.0 0.0 21.1 18.4 14.1 14.6 8.4 5.7 3.9 0.6 1.1 0.2 0.3 1.2 2.5 10.1 4.4 7.7 12.2 12.2 4.1 7.8 7.4 4.7 1.5 0.6 0.4 0.3 0.4 0.1 0.1 0.2 0.3 0.6 0.8 1.0 1.0 1.6 1.9 2.5 3.1 3.9
0.0 11.4 15.7 14.8 21.3 23.5 14.7 9.6 5.2 5.8 3.7 3.6 1.1 2.4 1.0 0.8 9.5 12.6 9.5 9.7 12.2 5.0 12.7 10.5 7.4 4.3 2.7 2.4 1.5 1.1 1.1 1.0 0.6 1.1 1.2 1.1 1.6 2.1 2.6 3.2 5.1 5.4 6.2 8.0
12.2 23.6 21.7 15.2 12.3 9.7 8.3 4.9 3.6 4.2 5.1 4.5 1.8 1.6 2.8 4.1 11.0 21.7 16.7 14.4 4.9 10.5 8.9 6.0 6.4 7.2 6.9 5.1 4.1 3.7 5.0 5.3 5.3 5.5 6.0 6.3 6.5 7.3 7.7 7.7 8.2 6.5 7.4 9.3
12.8 8.1 10.9 8.7 9.7 7.3 6.6 5.0 4.7 4.5 7.3 5.6 3.8 4.7 6.1 8.0 13.8 12.7 10.0 7.4 6.4 5.0 7.3 8.1 8.2 6.9 6.5 5.6 5.3 5.3 5.8 6.3 6.5 7.0 6.4 7.0 7.2 5.8 7.4 7.9 7.1 5.4 5.5 5.7
5.4 7.1 11.2 7.6 6.0 6.4 6.9 6.5 7.3 4.4 7.9 5.9 6.2 9.7 9.3 11.4 8.8 6.8 7.2 4.6 6.7 7.9 6.8 6.4 7.2 7.0 7.5 8.0 8.0 8.1 8.2 7.4 6.7 6.4 5.9 5.6 5.4 4.6 5.0 5.2 4.6 4.6 3.8 3.9
4.3 10.6 12.1 10.9 8.8 10.4 10.8 8.7 7.8 6.2 5.6 6.9 3.6 4.2 6.8 4.9 5.1 5.9 6.3 9.0 9.3 7.9 8.3 8.0 7.9 8.0 8.3 8.2 8.3 8.5 7.4 6.0 5.4 5.3 4.9 4.6 4.3 3.2 2.1 2.8 4.3 3.0 3.3 3.2